DW8266 Weather Reports


time (UTC)temp
C
wind
direction
speed
KPH
gust
KPH
rain 1hr
cm
rain 24hr
cm
rain mn
cm
humidity
%
barometer
mb
20260506091557 24 153 1.6 6.4 0.00 0.00 0.00 93 1008.5
20260506090056 25 166 3.2 9.7 0.00 0.00 0.00 93 1008.6
20260506084600 25 168 3.2 8.0 0.00 0.00 0.00 93 1008.6
20260506083100 25 168 1.6 8.0 0.00 0.00 0.00 93 1008.8
20260506081609 25 139 1.6 8.0 0.00 0.00 0.00 93 1008.8
20260506073059 25 117 1.6 8.0 0.00 0.00 0.00 93 1009.1
20260506071559 25 167 1.6 8.0 0.00 0.00 0.00 93 1009.1
20260506061559 25 165 0.0 9.7 0.00 0.00 0.00 93 1009.4
20260506044559 25 157 0.0 8.0 0.00 0.00 0.00 92 1009.4
20260506043110 25 157 0.0 6.4 0.00 0.00 0.00 92 1009.5
20260506041559 25 164 0.0 6.4 0.00 0.00 0.00 91 1009.1
20260506040059 25 171 1.6 6.4 0.00 0.00 0.00 91 1009.3
20260506034615 25 192 1.6 11.3 0.00 0.00 0.00 91 1009.1
20260506033058 25 138 1.6 8.0 0.00 0.00 0.00 90 1008.8
20260506031606 25 158 3.2 8.0 0.00 0.00 0.00 90 1008.8
20260506030059 25 155 1.6 8.0 0.00 0.00 0.00 90 1008.8
20260506030003 25 146 3.2 8.0 0.00 0.00 0.00 90 1008.8
20260506024558 26 161 4.8 11.3 0.00 0.00 0.00 90 1008.5
20260506023105 26 166 3.2 11.3 0.00 0.00 0.00 90 1008.5
20260506021601 26 163 1.6 9.7 0.00 0.00 0.00 89 1008.2
20260506020059 26 163 4.8 14.5 0.00 0.00 0.00 89 1008.0
20260506014559 26 137 4.8 11.3 0.00 0.00 0.00 89 1007.8
20260506013110 26 139 1.6 8.0 0.00 0.00 0.00 88 1007.5
20260506011601 26 167 1.6 9.7 0.00 0.00 0.00 87 1007.2
20260506010120 26 175 4.8 12.9 0.00 0.00 0.00 87 1007.1
20260506004557 26 105 3.2 11.3 0.00 0.00 0.00 86 1007.1
20260506003117 26 192 4.8 11.3 0.00 0.00 0.00 86 1006.7
20260506000058 27 156 4.8 14.5 0.00 0.00 0.00 85 1007.0
20260505234558 27 167 3.2 16.1 0.00 0.00 0.00 85 1006.7
20260505233111 27 167 4.8 12.9 0.00 0.00 0.00 85 1006.8
20260505231559 27 205 6.4 19.3 0.00 0.00 0.00 84 1006.8
20260505230100 27 175 4.8 16.1 0.00 0.00 0.00 84 1006.8
20260505230002 27 118 4.8 16.1 0.00 0.00 0.00 84 1006.8
20260505224557 27 171 4.8 12.9 0.00 0.00 0.00 84 1006.8
20260505223059 27 155 6.4 11.3 0.00 0.00 0.00 84 1006.9
20260505221600 28 211 6.4 14.5 0.00 0.00 0.00 83 1006.8
20260505220100 28 205 6.4 12.9 0.00 0.00 0.00 83 1006.9
20260505214628 28 137 4.8 16.1 0.00 0.00 0.00 83 1007.2
20260505213109 28 177 8.0 19.3 0.00 0.00 0.00 82 1007.3
20260505211559 28 135 6.4 16.1 0.00 0.00 0.00 81 1007.7
20260505210059 28 211 9.7 20.9 0.00 0.00 0.00 82 1007.8
20260505210002 28 214 6.4 17.7 0.00 0.00 0.00 83 1007.8
20260505204600 28 184 6.4 17.7 0.00 0.00 0.00 83 1008.1
20260505203100 28 188 6.4 20.9 0.00 0.00 0.00 82 1008.2
20260505200100 28 209 8.0 19.3 0.00 0.00 0.00 83 1008.4
20260505200003 28 205 6.4 14.5 0.00 0.00 0.00 83 1008.5
20260505194559 28 180 6.4 16.1 0.00 0.00 0.00 83 1008.7
20260505193059 27 216 8.0 22.5 0.00 0.00 0.00 85 1008.8
20260505191608 27 170 6.4 16.1 0.00 0.00 0.00 85 1009.0
20260505190105 27 211 8.0 16.1 0.00 0.00 0.00 85 1008.8
20260505184604 27 171 4.8 19.3 0.00 0.00 0.00 85 1009.0
20260505183131 27 196 6.4 16.1 0.00 0.00 0.00 85 1009.1
20260505181601 27 192 9.7 19.3 0.00 0.00 0.00 85 1009.1
20260505180100 26 214 9.7 19.3 0.00 0.00 0.00 86 1009.4
20260505174601 26 231 6.4 24.1 0.00 0.00 0.00 86 1009.6
20260505173107 26 184 3.2 16.1 0.00 0.00 0.00 87 1009.6
20260505171603 26 186 6.4 24.1 0.00 0.00 0.00 86 1009.5
20260505170058 26 191 8.0 16.1 0.00 0.00 0.00 87 1009.6
20260505164600 26 209 6.4 24.1 0.00 0.00 0.00 87 1009.7
20260505163059 26 211 8.0 19.3 0.00 0.00 0.00 89 1009.6
20260505161624 25 182 4.8 16.1 0.00 0.00 0.00 90 1009.6
20260505153100 25 213 4.8 14.5 0.00 0.00 0.00 90 1009.3
20260505153003 25 191 4.8 14.5 0.00 0.00 0.00 90 1009.3
20260505151621 25 213 8.0 17.7 0.00 0.00 0.00 91 1009.4
20260505124559 22 120 1.6 6.4 0.00 0.00 0.00 93 1009.2
20260505123059 22 135 0.0 4.8 0.00 0.00 0.00 94 1008.9
20260505121559 22 141 0.0 4.8 0.00 0.00 0.00 93 1008.8
20260505120124 22 158 1.6 4.8 0.00 0.00 0.00 93 1008.6
20260505114601 21 96 0.0 3.2 0.00 0.00 0.00 93 1008.5
20260505113058 21 153 0.0 3.2 0.00 0.00 0.00 93 1008.8
20260505111559 21 157 0.0 4.8 0.00 0.00 0.00 93 1008.4
20260505101600 21 173 1.6 8.0 0.00 0.00 0.00 93 1008.6
20260505100059 21 139 0.0 8.0 0.00 0.00 0.00 93 1008.8
20260505100002 21 139 1.6 8.0 0.00 0.00 0.00 93 1008.8
20260505094559 21 147 1.6 4.8 0.00 0.00 0.00 93 1008.8
20260505093101 21 101 0.0 8.0 0.00 0.00 0.00 92 1008.7